Location: Asheville, NC
(35.6000°N, 82.5500°W)
Time: 16:05:34

XW-2F - Pass Details

Date: 07 January 2018
Orbit: 507 x 527 km, 97.5° (Epoch: 21 March)

Event Time Altitude Azimuth Distance (km) Brightness Sun altitude
Rises 06:45:31 0° 8° (N) 2,649 ? -11.1°
Reaches altitude 10° 06:47:38 10° 6° (N) 1,753 ? -10.6°
Maximum altitude 06:51:23 67° 283° (WNW) 560 ? -9.9°
Drops below altitude 10° 06:55:05 10° 201° (SSW) 1,728 ? -9.2°
Sets 06:57:10 0° 199° (SSW) 2,606 ? -8.8°
